This demonstration page uses our WeatherBlox Daily Observations layout. Learn more.

Left ArrowRight Arrow

Hourly Observations for August 26, 2017

Temp ( °F °C ) Dew Point ( °F °C ) Humidity (%) Winds ( mph kmh ) Pressure ( in mb ) Visibility ( mi km ) Precip ( " mm )
12:51 am 00:51 Clear 81 27.2 56 13.3 42 42 E 8 13 29.8 1009 10 16.0934 0 0
1:51 am 01:51 Clear 79 26.1 57 13.9 47 47 E 8 13 29.8 1009 10 16.0934 0 0
2:51 am 02:51 Clear 77 25 57 13.9 50 50 ESE 6 9 29.82 1010 10 16.0934 0 0
3:51 am 03:51 Clear 75 23.9 58 14.4 55 55 SSE 9 15 29.83 1010 10 16.0934 0 0
4:51 am 04:51 Clear 76 24.4 57 13.9 52 52 SE 9 15 29.84 1011 10 16.0934 0 0.0254
5:51 am 05:51 Sunny 76 24.4 56 13.3 50 50 SE 9 15 29.87 1011 10 16.0934 0 0
6:51 am 06:51 Sunny 77 25 58 14.4 52 52 SE 9 15 29.89 1012 10 16.0934 0 0
7:51 am 07:51 Sunny 82 27.8 58 14.4 44 44 SE 10 17 29.91 1013 10 16.0934 0 0
8:51 am 08:51 Sunny 85 29.4 58 14.4 40 40 ESE 9 15 29.91 1013 10 16.0934 0 0
9:51 am 09:51 Sunny 88 31.1 60 15.6 39 39 undefined N/A 29.91 1013 10 16.0934 0 0
10:51 am 10:51 Sunny 92 33.3 60 15.6 34 34 undefined N/A 29.9 1012 10 16.0934 0 0
11:51 am 11:51 Sunny 94 34.4 60 15.6 32 32 VRB 6 9 29.87 1012 10 16.0934 0 0
12:51 pm 12:51 Sunny 95 35 59 15 30 30 undefined N/A 29.84 1011 10 16.0934 0 0
1:51 pm 13:51 Sunny 98 36.7 57 13.9 25 25 SSW 8 13 29.81 1009 10 16.0934 0 0
2:51 pm 14:51 Sunny 98 36.7 56 13.3 24 24 VRB 3 6 29.79 1009 10 16.0934 0 0
3:08 pm 15:08 Sunny with Nearby Thunderstorms 99 37 55 13 24 24 WSW 8 13 29.65 1004 10 16.0934 0 0
3:27 pm 15:27 Partly Cloudy with Thunderstorms 96 35.6 53 11.7 23 23 N 23 37 29.65 1004 10 16.0934 0 0
3:34 pm 15:34 Partly Cloudy with Thunderstorms 92 33.3 56 13.3 30 30 N 26 43 29.71 1006 9 14.48406 0 0
3:51 pm 15:51 Partly Cloudy with Thunderstorms 94 34.4 55 12.8 27 27 NNE 20 31 29.82 1010 10 16.0934 0 0
4:03 pm 16:03 Mostly Cloudy with Heavy Thunderstorms 75 23.9 64 17.8 69 69 E 32 52 29.85 1011 3 4.82802 0.02 0.508
4:51 pm 16:51 Mostly Cloudy with Nearby Thunderstorms 78 25.6 64 17.8 62 62 E 18 30 29.91 1013 10 16.0934 0.03 0.762
5:07 pm 17:07 Mostly Sunny 78 25.6 63 17.2 60 60 ESE 13 20 29.85 1011 10 16.0934 0 0.0254
5:43 pm 17:43 Sunny with Nearby Thunderstorms 78 25.6 62 16.7 58 58 VRB 5 7 29.88 1012 10 16.0934 0 0.0254
5:51 pm 17:51 Sunny with Nearby Thunderstorms 78 25.6 63 17.2 60 60 VRB 3 6 29.93 1014 10 16.0934 0 0.0254
5:58 pm 17:58 Sunny 77 25 63 17 61 61 SSW 8 13 29.91 1013 10 16.0934 0 0
6:51 pm 18:51 Clear 77 25 62 16.7 60 60 ENE 6 9 29.91 1013 10 16.0934 0 0
7:51 pm 19:51 Clear 77 25 61 16.1 58 58 undefined N/A 29.9 1012 10 16.0934 0 0
8:51 pm 20:51 Clear 75 23.9 66 18.9 74 74 W 3 6 29.89 1012 10 16.0934 0 0
9:51 pm 21:51 Clear 73 22.8 64 17.8 74 74 WNW 5 7 29.91 1013 10 16.0934 0 0
10:51 pm 22:51 Clear 73 22.8 64 17.8 74 74 ESE 3 6 29.91 1013 10 16.0934 0 0
11:51 pm 23:51 Clear 71 21.7 65 18.3 81 81 ENE 6 9 29.92 1013 10 16.0934 0 0

Powered by AerisWeather